• en France
  • Liste des pays
  • À 7 jours
  • Température de l'eau
  • Carte satellitaire
  • Carte météo
  • Widgets météo
  • user-avatar
    Se connecter

    Météo par heure à Kardjali

    Ce jour, 18 Novembre, Samedi

    Heure Température Précipitation Vent Pression Humidité
    00:00 +10°C° 0,3 mm 2 m/s 727 mmHg 92%
    01:00 +10°C° 0,3 mm 2 m/s 726 mmHg 93%
    02:00 +9°C° 0 mm 2 m/s 726 mmHg 92%
    03:00 +9°C° 0,3 mm 2 m/s 726 mmHg 92%
    04:00 +9°C° 0,3 mm 2 m/s 726 mmHg 92%
    05:00 +9°C° 0,3 mm 2 m/s 726 mmHg 92%
    06:00 +9°C° 0,3 mm 2 m/s 726 mmHg 92%
    07:00 +10°C° 0,3 mm 1 m/s 725 mmHg 92%
    08:00 +10°C° 0 mm 1 m/s 725 mmHg 90%
    09:00 +11°C° 0 mm 1 m/s 725 mmHg 88%
    10:00 +10°C° 0 mm 2 m/s 725 mmHg 86%
    11:00 +10°C° 0 mm 2 m/s 726 mmHg 84%
    12:00 +12°C° 0 mm 2 m/s 725 mmHg 82%
    13:00 +12°C° 0 mm 2 m/s 725 mmHg 80%
    14:00 +12°C° 0 mm 2 m/s 725 mmHg 80%
    15:00 +12°C° 0 mm 1 m/s 725 mmHg 82%
    16:00 +12°C° 0 mm 1 m/s 725 mmHg 85%
    17:00 +11°C° 0 mm 1 m/s 725 mmHg 87%
    18:00 +11°C° 0,1 mm 1 m/s 725 mmHg 88%
    19:00 +11°C° 0,1 mm 1 m/s 725 mmHg 89%
    20:00 +10°C° 0,1 mm 1 m/s 725 mmHg 89%
    21:00 +10°C° 0,3 mm 1 m/s 724 mmHg 89%
    22:00 +10°C° 0,3 mm 1 m/s 724 mmHg 89%
    23:00 +10°C° 0,3 mm 1 m/s 724 mmHg 89%

    Demain, 19 Novembre, Dimanche

    Heure Température Précipitation Vent Pression Humidité
    00:00 +10°C° 0,4 mm 1 m/s 724 mmHg 89%
    01:00 +10°C° 0,4 mm 1 m/s 724 mmHg 90%
    02:00 +10°C° 0,4 mm 1 m/s 724 mmHg 90%
    03:00 +9°C° 0,3 mm 1 m/s 724 mmHg 90%
    04:00 +9°C° 0,3 mm 1 m/s 724 mmHg 90%
    05:00 +9°C° 0,3 mm 1 m/s 723 mmHg 90%
    06:00 +9°C° 0,3 mm 1 m/s 723 mmHg 90%
    07:00 +9°C° 0,3 mm 1 m/s 723 mmHg 89%
    08:00 +9°C° 0,3 mm 1 m/s 723 mmHg 89%
    09:00 +9°C° 0,1 mm 1 m/s 723 mmHg 86%
    10:00 +10°C° 0,1 mm 1 m/s 724 mmHg 82%
    11:00 +11°C° 0,1 mm 1 m/s 724 mmHg 79%
    12:00 +11°C° 0,3 mm 1 m/s 723 mmHg 79%
    13:00 +10°C° 0,3 mm 2 m/s 723 mmHg 79%
    14:00 +10°C° 0,3 mm 2 m/s 723 mmHg 78%
    15:00 +10°C° 0,6 mm 1 m/s 722 mmHg 82%
    16:00 +10°C° 0,6 mm 1 m/s 722 mmHg 85%
    17:00 +9°C° 0,6 mm 1 m/s 722 mmHg 88%
    18:00 +9°C° 0,7 mm 1 m/s 722 mmHg 89%
    19:00 +9°C° 0,7 mm 1 m/s 722 mmHg 90%
    20:00 +9°C° 0,7 mm 1 m/s 721 mmHg 91%
    21:00 +9°C° 0,1 mm 1 m/s 721 mmHg 91%
    22:00 +8°C° 0,1 mm 1 m/s 721 mmHg 90%
    23:00 +8°C° 0,1 mm 1 m/s 721 mmHg 90%

    Après-demain, 20 Novembre, Lundi

    Heure Température Précipitation Vent Pression Humidité
    00:00 +8°C° 0 mm 1 m/s 721 mmHg 90%
    01:00 +8°C° 0 mm 1 m/s 721 mmHg 90%
    02:00 +8°C° 0 mm 1 m/s 721 mmHg 90%
    03:00 +8°C° 0,3 mm 1 m/s 721 mmHg 90%
    04:00 +8°C° 0,3 mm 1 m/s 721 mmHg 90%
    05:00 +8°C° 0,3 mm 1 m/s 721 mmHg 90%
    06:00 +7°C° 1,1 mm 2 m/s 721 mmHg 88%
    07:00 +5°C° 1,1 mm 3 m/s 722 mmHg 87%
    08:00 +5°C° 1,1 mm 4 m/s 722 mmHg 86%
    09:00 +5°C° 0,7 mm 5 m/s 722 mmHg 82%
    10:00 +5°C° 0,7 mm 5 m/s 723 mmHg 78%
    11:00 +4°C° 0,7 mm 6 m/s 723 mmHg 73%
    12:00 +3°C° 0,4 mm 6 m/s 723 mmHg 72%
    13:00 +3°C° 0,4 mm 7 m/s 723 mmHg 71%
    14:00 +3°C° 0,4 mm 7 m/s 724 mmHg 69%
    15:00 +3°C° 0,2 mm 7 m/s 724 mmHg 68%
    16:00 +3°C° 0,2 mm 6 m/s 724 mmHg 68%
    17:00 +3°C° 0,2 mm 5 m/s 725 mmHg 67%
    18:00 +2°C° 0 mm 5 m/s 725 mmHg 67%
    19:00 +3°C° 0 mm 4 m/s 726 mmHg 68%
    20:00 +3°C° 0 mm 4 m/s 726 mmHg 68%
    21:00 +1°C° 0 mm 4 m/s 727 mmHg 68%
    22:00 +1°C° 0 mm 4 m/s 727 mmHg 69%
    23:00 +1°C° 0 mm 3 m/s 728 mmHg 69%

    21 Novembre, Mardi

    Heure Température Précipitation Vent Pression Humidité
    00:00 +1°C° 0 mm 3 m/s 728 mmHg 69%
    01:00 +1°C° 0 mm 3 m/s 728 mmHg 69%
    02:00 +1°C° 0 mm 3 m/s 728 mmHg 69%
    03:00 +1°C° 0 mm 3 m/s 728 mmHg 69%
    04:00 +2°C° 0 mm 2 m/s 728 mmHg 69%
    05:00 +1°C° 0 mm 2 m/s 729 mmHg 69%
    06:00 +2°C° 0 mm 2 m/s 729 mmHg 68%
    07:00 +2°C° 0 mm 2 m/s 729 mmHg 67%
    08:00 +2°C° 0 mm 2 m/s 729 mmHg 66%
    09:00 +4°C° 0 mm 2 m/s 729 mmHg 59%
    10:00 +5°C° 0 mm 2 m/s 730 mmHg 52%
    11:00 +7°C° 0 mm 2 m/s 730 mmHg 45%
    12:00 +8°C° 0 mm 2 m/s 729 mmHg 44%
    13:00 +8°C° 0 mm 2 m/s 729 mmHg 44%
    14:00 +9°C° 0 mm 3 m/s 728 mmHg 43%
    15:00 +8°C° 0 mm 2 m/s 728 mmHg 50%
    16:00 +7°C° 0 mm 2 m/s 728 mmHg 56%
    17:00 +6°C° 0 mm 2 m/s 728 mmHg 62%
    18:00 +5°C° 0 mm 2 m/s 728 mmHg 64%
    19:00 +5°C° 0 mm 2 m/s 728 mmHg 65%
    20:00 +5°C° 0 mm 2 m/s 728 mmHg 67%
    21:00 +5°C° 0 mm 2 m/s 728 mmHg 67%
    22:00 +5°C° 0 mm 2 m/s 728 mmHg 66%
    23:00 +5°C° 0 mm 2 m/s 728 mmHg 66%

    22 Novembre, Mercredi

    Heure Température Précipitation Vent Pression Humidité
    00:00 +5°C° 0 mm 2 m/s 728 mmHg 65%
    01:00 +5°C° 0 mm 2 m/s 728 mmHg 65%
    02:00 +5°C° 0 mm 2 m/s 727 mmHg 64%
    03:00 +5°C° 0 mm 2 m/s 727 mmHg 64%
    04:00 +5°C° 0 mm 2 m/s 727 mmHg 64%
    05:00 +5°C° 0 mm 2 m/s 727 mmHg 64%
    06:00 +5°C° 0 mm 2 m/s 728 mmHg 64%
    07:00 +5°C° 0 mm 2 m/s 728 mmHg 64%
    08:00 +6°C° 0 mm 2 m/s 728 mmHg 64%
    09:00 +8°C° 0 mm 2 m/s 728 mmHg 59%
    10:00 +10°C° 0 mm 2 m/s 729 mmHg 54%
    11:00 +13°C° 0 mm 2 m/s 729 mmHg 49%
    12:00 +13°C° 0 mm 2 m/s 729 mmHg 49%
    13:00 +14°C° 0 mm 2 m/s 729 mmHg 48%
    14:00 +15°C° 0 mm 2 m/s 729 mmHg 47%
    15:00 +13°C° 0 mm 2 m/s 729 mmHg 53%
    16:00 +12°C° 0 mm 1 m/s 729 mmHg 59%
    17:00 +11°C° 0 mm 1 m/s 729 mmHg 64%
    18:00 +10°C° 0 mm 1 m/s 729 mmHg 66%
    19:00 +10°C° 0 mm 1 m/s 730 mmHg 67%
    20:00 +9°C° 0 mm 1 m/s 730 mmHg 69%
    21:00 +9°C° 0 mm 1 m/s 730 mmHg 69%
    22:00 +9°C° 0 mm 1 m/s 731 mmHg 70%
    23:00 +8°C° 0 mm 1 m/s 731 mmHg 70%

    23 Novembre, Jeudi

    Heure Température Précipitation Vent Pression Humidité
    00:00 +8°C° 0 mm 1 m/s 731 mmHg 71%
    01:00 +8°C° 0 mm 1 m/s 731 mmHg 71%
    02:00 +8°C° 0 mm 1 m/s 731 mmHg 71%
    03:00 +8°C° 0 mm 1 m/s 731 mmHg 72%
    04:00 +8°C° 0 mm 1 m/s 731 mmHg 72%
    05:00 +7°C° 0 mm 1 m/s 731 mmHg 72%
    06:00 +8°C° 0 mm 1 m/s 732 mmHg 72%
    07:00 +8°C° 0 mm 1 m/s 732 mmHg 71%
    08:00 +8°C° 0 mm 1 m/s 732 mmHg 70%
    09:00 +10°C° 0 mm 1 m/s 733 mmHg 64%
    10:00 +11°C° 0 mm 1 m/s 733 mmHg 58%
    11:00 +13°C° 0 mm 1 m/s 733 mmHg 52%
    12:00 +14°C° 0 mm 1 m/s 733 mmHg 50%
    13:00 +14°C° 0 mm 1 m/s 733 mmHg 49%
    14:00 +15°C° 0 mm 1 m/s 733 mmHg 48%
    15:00 +14°C° 0 mm 1 m/s 733 mmHg 54%
    16:00 +12°C° 0 mm 1 m/s 733 mmHg 60%
    17:00 +11°C° 0 mm 1 m/s 733 mmHg 66%
    18:00 +11°C° 0 mm 1 m/s 733 mmHg 68%
    19:00 +10°C° 0 mm 1 m/s 733 mmHg 70%
    20:00 +10°C° 0 mm 1 m/s 734 mmHg 72%
    21:00 +9°C° 0 mm 1 m/s 734 mmHg 72%
    22:00 +9°C° 0 mm 1 m/s 734 mmHg 73%
    23:00 +9°C° 0 mm 1 m/s 734 mmHg 73%
    Voir plus